Location: Crocus Hill
(18.2167°N, 63.0667°W)
Time: 03:28:10
(UTC+00:00)

Cosmos 2263 Rocket - Pass Details

Date: 26 January 2020
Orbit: 823 x 849 km, 71.0° (Epoch: 18 February)

Event Time Altitude Azimuth Distance (km) Brightness Sun altitude
Rises 09:19:32 0° 357° (N) 3,393 5.2 -20.7°
Reaches altitude 10° 09:22:12 10° 6° (N) 2,461 4.5 -20.1°
Maximum altitude 09:27:16 33° 70° (ENE) 1,376 3.8 -18.9°
Drops below altitude 10° 09:32:20 10° 134° (SE) 2,465 5.5 -17.7°
Sets 09:35:00 0° 143° (SE) 3,400 6.2 -17.1°
